Time,TemperatureF,DewpointF,PressureIn,WindDirection,WindDirectionDegrees,WindSpeedMPH,WindSpeedGustMPH,Humidity,HourlyPrecipIn,Conditions,Clouds,dailyrainin,SoftwareType,DateUTC
2013-01-28 00:01:00,28.6,26.2,30.06,SE,129,0.0,0.0,91,0.00,,,0.00,meteohub,2013-01-28 05:01:00,
2013-01-28 00:02:00,28.6,26.2,30.06,SE,126,0.0,0.0,91,0.00,,,0.00,meteohub,2013-01-28 05:02:00,
2013-01-28 00:03:00,28.6,26.2,30.06,SSE,168,0.0,0.0,91,0.00,,,0.00,meteohub,2013-01-28 05:03:00,
2013-01-28 00:04:00,28.6,26.2,30.05,ENE,66,0.0,0.0,91,0.00,,,0.00,meteohub,2013-01-28 05:04:00,
2013-01-28 00:09:00,28.6,26.2,30.05,ESE,115,0.0,0.0,91,0.00,,,0.00,meteohub,2013-01-28 05:09:00,
2013-01-28 00:14:00,28.6,26.2,30.04,SSW,206,0.0,0.0,91,0.00,,,0.00,meteohub,2013-01-28 05:14:00,
2013-01-28 00:19:00,28.8,26.4,30.04,SW,231,0.0,0.0,91,0.00,,,0.00,meteohub,2013-01-28 05:19:00,
2013-01-28 00:24:00,28.8,26.4,30.04,ESE,107,0.0,0.0,91,0.00,,,0.00,meteohub,2013-01-28 05:24:00,
2013-01-28 00:29:00,28.8,26.4,30.04,SE,138,0.0,0.0,91,0.00,,,0.00,meteohub,2013-01-28 05:29:00,
2013-01-28 00:34:00,28.9,26.6,30.04,ENE,62,0.0,0.0,91,0.00,,,0.00,meteohub,2013-01-28 05:34:00,
2013-01-28 00:39:00,28.8,26.4,30.03,SSE,158,0.0,0.0,91,0.00,,,0.00,meteohub,2013-01-28 05:39:00,
2013-01-28 00:44:00,28.9,26.6,30.03,East,82,0.0,0.0,91,0.00,,,0.00,meteohub,2013-01-28 05:44:00,
2013-01-28 00:49:00,28.9,26.6,30.03,SSE,161,0.0,0.0,91,0.00,,,0.00,meteohub,2013-01-28 05:49:00,
2013-01-28 00:54:00,29.1,26.8,30.03,ESE,110,0.0,0.0,91,0.00,,,0.00,meteohub,2013-01-28 05:54:00,
2013-01-28 00:59:00,29.5,27.1,30.03,SE,140,0.0,0.0,91,0.00,,,0.00,meteohub,2013-01-28 05:59:00,
2013-01-28 01:04:00,29.7,27.7,30.02,SSE,150,0.0,0.0,92,0.00,,,0.00,meteohub,2013-01-28 06:04:00,
2013-01-28 01:09:00,29.7,27.7,30.02,SW,217,0.0,0.0,92,0.00,,,0.00,meteohub,2013-01-28 06:09:00,
2013-01-28 01:14:00,29.5,27.5,30.01,ESE,117,0.0,0.0,92,0.00,,,0.00,meteohub,2013-01-28 06:14:00,
2013-01-28 01:19:00,29.5,27.5,30.01,SSE,150,0.0,0.0,92,0.00,,,0.00,meteohub,2013-01-28 06:19:00,
2013-01-28 01:24:00,29.5,27.5,30.01,SW,221,0.0,0.0,92,0.00,,,0.00,meteohub,2013-01-28 06:24:00,
2013-01-28 01:29:00,29.5,27.5,30.01,East,83,0.0,0.0,92,0.00,,,0.00,meteohub,2013-01-28 06:29:00,
2013-01-28 01:34:00,29.5,27.5,30.00,South,172,0.0,0.0,92,0.00,,,0.00,meteohub,2013-01-28 06:34:00,
2013-01-28 01:39:00,29.5,27.5,30.00,NE,34,0.0,0.0,92,0.00,,,0.00,meteohub,2013-01-28 06:39:00,
2013-01-28 01:44:00,29.5,27.1,30.00,SE,129,0.0,0.0,91,0.00,,,0.00,meteohub,2013-01-28 06:44:00,
2013-01-28 01:49:00,29.5,27.5,30.00,SSW,196,0.0,0.0,92,0.00,,,0.00,meteohub,2013-01-28 06:49:00,
2013-01-28 01:54:00,29.3,27.0,29.99,SE,130,0.0,0.0,91,0.00,,,0.00,meteohub,2013-01-28 06:54:00,
2013-01-28 01:59:00,29.3,27.0,29.99,ENE,73,0.0,0.0,91,0.00,,,0.00,meteohub,2013-01-28 06:59:00,
2013-01-28 02:04:00,29.3,27.0,29.99,SSE,167,0.0,0.0,91,0.00,,,0.00,meteohub,2013-01-28 07:04:00,
2013-01-28 02:09:00,29.1,26.8,29.99,SSW,197,0.0,0.0,91,0.00,,,0.00,meteohub,2013-01-28 07:09:00,
2013-01-28 02:14:00,29.1,26.8,29.98,SW,216,0.0,0.0,91,0.00,,,0.00,meteohub,2013-01-28 07:14:00,
2013-01-28 02:19:00,29.1,26.8,29.98,ENE,70,0.0,0.0,91,0.00,,,0.00,meteohub,2013-01-28 07:19:00,
2013-01-28 02:25:00,29.1,26.8,29.98,ESE,108,0.0,0.0,91,0.00,,,0.00,meteohub,2013-01-28 07:25:00,
2013-01-28 02:30:00,29.1,26.8,29.98,SE,124,0.0,0.0,91,0.00,,,0.00,meteohub,2013-01-28 07:30:00,
2013-01-28 02:35:00,29.1,26.8,29.97,SW,217,0.0,0.0,91,0.00,,,0.00,meteohub,2013-01-28 07:35:00,
2013-01-28 02:40:00,29.1,26.8,29.97,WSW,244,0.0,0.0,91,0.00,,,0.00,meteohub,2013-01-28 07:40:00,
2013-01-28 02:45:00,29.1,26.8,29.97,South,169,0.0,0.0,91,0.00,,,0.00,meteohub,2013-01-28 07:45:00,
2013-01-28 02:50:00,29.1,26.8,29.97,SSW,213,0.0,0.0,91,0.00,,,0.00,meteohub,2013-01-28 07:50:00,
2013-01-28 02:55:00,29.1,26.8,29.96,West,265,0.0,0.0,91,0.00,,,0.00,meteohub,2013-01-28 07:55:00,
2013-01-28 03:00:00,29.1,26.8,29.96,SW,221,0.0,0.0,91,0.00,,,0.00,meteohub,2013-01-28 08:00:00,
2013-01-28 03:05:00,29.1,26.8,29.96,NNW,340,0.0,0.0,91,0.00,,,0.00,meteohub,2013-01-28 08:05:00,
2013-01-28 03:10:00,29.1,26.8,29.96,South,189,0.0,0.0,91,0.00,,,0.00,meteohub,2013-01-28 08:10:00,
2013-01-28 03:15:00,29.3,27.0,29.96,SSE,164,0.0,0.0,91,0.00,,,0.00,meteohub,2013-01-28 08:15:00,
2013-01-28 03:20:00,29.5,27.5,29.95,SSE,155,0.0,0.0,92,0.00,,,0.00,meteohub,2013-01-28 08:20:00,
2013-01-28 03:25:00,29.5,27.5,29.95,SE,138,0.0,0.0,92,0.00,,,0.00,meteohub,2013-01-28 08:25:00,
2013-01-28 03:30:00,29.5,27.5,29.95,ENE,71,0.0,0.0,92,0.00,,,0.00,meteohub,2013-01-28 08:30:00,
2013-01-28 03:35:00,29.5,27.5,29.95,WSW,254,0.0,0.0,92,0.00,,,0.00,meteohub,2013-01-28 08:35:00,
2013-01-28 03:40:00,29.5,27.5,29.95,SSE,160,0.0,0.0,92,0.00,,,0.00,meteohub,2013-01-28 08:40:00,
2013-01-28 03:45:00,29.7,27.7,29.94,SSW,199,0.0,0.0,92,0.00,,,0.00,meteohub,2013-01-28 08:45:00,
2013-01-28 03:50:00,29.7,27.7,29.94,South,185,0.0,0.0,92,0.00,,,0.00,meteohub,2013-01-28 08:50:00,
2013-01-28 03:55:00,29.5,27.5,29.94,WSW,237,0.0,0.0,92,0.00,,,0.00,meteohub,2013-01-28 08:55:00,
2013-01-28 04:00:00,29.5,27.5,29.93,SE,124,0.0,0.0,92,0.00,,,0.00,meteohub,2013-01-28 09:00:00,
2013-01-28 04:05:00,29.5,27.5,29.93,SSW,206,0.0,0.0,92,0.00,,,0.00,meteohub,2013-01-28 09:05:00,
2013-01-28 04:10:00,29.5,27.7,29.93,ENE,77,0.0,0.0,93,0.00,,,0.00,meteohub,2013-01-28 09:10:00,
2013-01-28 04:15:00,29.5,27.7,29.92,WSW,238,0.0,0.0,93,0.00,,,0.00,meteohub,2013-01-28 09:15:00,
2013-01-28 04:20:00,29.5,27.7,29.92,East,100,0.0,0.0,93,0.00,,,0.00,meteohub,2013-01-28 09:20:00,
2013-01-28 04:25:00,29.5,27.7,29.92,SSE,155,0.0,0.0,93,0.00,,,0.00,meteohub,2013-01-28 09:25:00,
2013-01-28 04:30:00,29.5,27.7,29.92,SE,136,0.0,0.0,93,0.00,,,0.00,meteohub,2013-01-28 09:30:00,
2013-01-28 04:35:00,29.5,27.7,29.92,SW,226,0.0,0.0,93,0.00,,,0.00,meteohub,2013-01-28 09:35:00,
2013-01-28 04:40:00,29.5,27.7,29.92,South,189,0.0,0.0,93,0.00,,,0.00,meteohub,2013-01-28 09:40:00,
2013-01-28 04:45:00,29.5,27.7,29.92,SW,235,0.0,0.0,93,0.00,,,0.00,meteohub,2013-01-28 09:45:00,
2013-01-28 04:50:00,29.5,27.7,29.92,East,95,0.0,0.0,93,0.00,,,0.00,meteohub,2013-01-28 09:50:00,
2013-01-28 04:55:00,29.5,27.7,29.91,SSE,168,0.0,0.0,93,0.00,,,0.00,meteohub,2013-01-28 09:55:00,
2013-01-28 05:00:00,29.5,27.7,29.90,South,176,0.0,0.0,93,0.00,,,0.00,meteohub,2013-01-28 10:00:00,
2013-01-28 05:05:00,29.5,27.7,29.91,SSE,155,0.0,0.0,93,0.00,,,0.00,meteohub,2013-01-28 10:05:00,
2013-01-28 05:10:00,29.5,27.7,29.91,ESE,113,0.0,0.0,93,0.00,,,0.00,meteohub,2013-01-28 10:10:00,
2013-01-28 05:15:00,29.5,27.7,29.91,SE,130,0.0,0.0,93,0.00,,,0.00,meteohub,2013-01-28 10:15:00,
2013-01-28 05:20:00,29.5,27.7,29.91,SSE,155,0.0,0.0,93,0.00,,,0.00,meteohub,2013-01-28 10:20:00,
2013-01-28 05:25:00,29.5,27.5,29.91,ESE,107,0.0,0.0,92,0.00,,,0.00,meteohub,2013-01-28 10:25:00,
2013-01-28 05:31:00,29.7,27.7,29.90,ESE,122,0.0,0.0,92,0.00,,,0.00,meteohub,2013-01-28 10:31:00,
2013-01-28 05:36:00,29.7,27.7,29.89,SSE,154,0.0,0.0,92,0.00,,,0.00,meteohub,2013-01-28 10:36:00,
2013-01-28 05:41:00,29.7,27.7,29.89,South,183,0.0,0.0,92,0.00,,,0.00,meteohub,2013-01-28 10:41:00,
2013-01-28 05:46:00,29.7,27.7,29.89,ESE,107,0.0,0.0,92,0.00,,,0.00,meteohub,2013-01-28 10:46:00,
2013-01-28 05:51:00,29.7,27.7,29.88,South,175,0.0,0.0,92,0.00,,,0.00,meteohub,2013-01-28 10:51:00,
2013-01-28 05:56:00,29.8,27.9,29.88,SE,127,0.0,0.0,92,0.00,,,0.00,meteohub,2013-01-28 10:56:00,
2013-01-28 06:01:00,29.8,27.9,29.88,East,83,0.0,0.0,92,0.00,,,0.00,meteohub,2013-01-28 11:01:00,
2013-01-28 06:06:00,29.8,27.9,29.87,SSE,158,0.0,0.0,92,0.00,,,0.00,meteohub,2013-01-28 11:06:00,
2013-01-28 06:11:00,29.8,27.9,29.87,SSE,147,0.0,0.0,92,0.00,,,0.00,meteohub,2013-01-28 11:11:00,
2013-01-28 06:16:00,29.8,27.9,29.87,West,259,0.0,0.0,92,0.00,,,0.00,meteohub,2013-01-28 11:16:00,
2013-01-28 06:21:00,29.8,27.9,29.86,ESE,120,0.0,0.0,92,0.00,,,0.00,meteohub,2013-01-28 11:21:00,
2013-01-28 06:26:00,29.8,27.9,29.86,SE,125,0.0,0.0,92,0.00,,,0.00,meteohub,2013-01-28 11:26:00,
2013-01-28 06:31:00,29.8,27.9,29.86,SSE,161,0.0,0.0,92,0.00,,,0.00,meteohub,2013-01-28 11:31:00,
2013-01-28 06:36:00,30.0,28.0,29.86,NE,39,0.0,0.0,92,0.00,,,0.00,meteohub,2013-01-28 11:36:00,
2013-01-28 06:41:00,30.0,28.0,29.86,ESE,117,0.0,0.0,92,0.00,,,0.00,meteohub,2013-01-28 11:41:00,
2013-01-28 06:46:00,30.2,28.2,29.86,SSE,165,0.0,0.0,92,0.00,,,0.00,meteohub,2013-01-28 11:46:00,
2013-01-28 06:51:00,30.2,28.2,29.86,East,93,0.0,0.0,92,0.00,,,0.00,meteohub,2013-01-28 11:51:00,
2013-01-28 06:56:00,30.2,27.9,29.86,SE,133,0.0,0.0,91,0.00,,,0.00,meteohub,2013-01-28 11:56:00,
2013-01-28 07:01:00,30.4,28.0,29.86,SSE,160,0.0,0.0,91,0.00,,,0.00,meteohub,2013-01-28 12:01:00,
2013-01-28 07:06:00,30.4,28.4,29.86,SSW,206,0.0,0.0,92,0.00,,,0.00,meteohub,2013-01-28 12:06:00,
2013-01-28 07:11:00,30.4,28.4,29.86,ENE,61,0.0,0.0,92,0.00,,,0.00,meteohub,2013-01-28 12:11:00,
2013-01-28 07:16:00,30.4,28.6,29.86,SSW,203,0.0,0.0,93,0.00,,,0.00,meteohub,2013-01-28 12:16:00,
2013-01-28 07:21:00,30.6,28.8,29.85,SE,143,0.0,0.0,93,0.00,,,0.00,meteohub,2013-01-28 12:21:00,
2013-01-28 07:26:00,30.6,28.8,29.85,SE,129,0.0,0.0,93,0.00,,,0.00,meteohub,2013-01-28 12:26:00,
2013-01-28 07:31:00,30.6,28.8,29.85,SSW,212,0.0,0.0,93,0.00,,,0.00,meteohub,2013-01-28 12:31:00,
2013-01-28 07:36:00,30.4,28.6,29.85,South,182,0.0,0.0,93,0.00,,,0.00,meteohub,2013-01-28 12:36:00,
2013-01-28 07:41:00,30.6,28.8,29.85,East,92,0.0,0.0,93,0.00,,,0.00,meteohub,2013-01-28 12:41:00,
2013-01-28 07:46:00,30.6,29.1,29.84,SE,145,0.0,0.0,94,0.00,,,0.00,meteohub,2013-01-28 12:46:00,
2013-01-28 07:51:00,30.6,29.1,29.84,SSE,154,0.0,0.0,94,0.00,,,0.00,meteohub,2013-01-28 12:51:00,
2013-01-28 07:56:00,30.6,29.1,29.85,South,171,0.0,0.0,94,0.00,,,0.00,meteohub,2013-01-28 12:56:00,
2013-01-28 08:01:00,30.6,29.1,29.85,East,96,0.0,0.0,94,0.00,,,0.00,meteohub,2013-01-28 13:01:00,
2013-01-28 08:06:00,30.7,29.3,29.84,SW,214,0.0,0.0,94,0.00,,,0.00,meteohub,2013-01-28 13:06:00,
2013-01-28 08:11:00,30.7,29.3,29.84,SE,126,0.0,0.0,94,0.00,,,0.00,meteohub,2013-01-28 13:11:00,
2013-01-28 08:16:00,30.7,29.3,29.84,South,186,0.0,0.0,94,0.00,,,0.00,meteohub,2013-01-28 13:16:00,
2013-01-28 08:21:00,30.9,29.1,29.84,SW,233,0.0,0.0,93,0.00,,,0.00,meteohub,2013-01-28 13:21:00,
2013-01-28 08:26:00,30.9,29.1,29.84,ESE,110,0.0,0.0,93,0.00,,,0.00,meteohub,2013-01-28 13:26:00,
2013-01-28 08:31:00,31.1,29.7,29.84,SE,134,0.0,0.0,94,0.00,,,0.00,meteohub,2013-01-28 13:31:00,
2013-01-28 08:36:00,31.3,29.8,29.85,East,85,0.0,0.0,94,0.00,,,0.00,meteohub,2013-01-28 13:36:00,
2013-01-28 08:41:00,31.3,29.8,29.84,SSE,160,0.0,0.0,94,0.00,,,0.00,meteohub,2013-01-28 13:41:00,
2013-01-28 08:46:00,31.3,29.8,29.84,South,175,0.0,0.0,94,0.00,,,0.00,meteohub,2013-01-28 13:46:00,
2013-01-28 08:51:00,31.3,29.8,29.84,East,93,0.0,0.0,94,0.00,,,0.00,meteohub,2013-01-28 13:51:00,
2013-01-28 08:56:00,31.3,29.8,29.83,SSE,151,0.0,0.0,94,0.00,,,0.00,meteohub,2013-01-28 13:56:00,
2013-01-28 09:01:00,31.3,29.8,29.83,ESE,107,0.0,0.0,94,0.00,,,0.00,meteohub,2013-01-28 14:01:00,
2013-01-28 09:06:00,31.3,29.8,29.83,SSE,165,0.0,0.0,94,0.00,,,0.00,meteohub,2013-01-28 14:06:00,
2013-01-28 09:11:00,31.5,30.2,29.84,SSE,151,0.0,0.0,95,0.00,,,0.00,meteohub,2013-01-28 14:11:00,
2013-01-28 09:16:00,31.6,30.4,29.83,NNE,19,0.0,0.0,95,0.00,,,0.00,meteohub,2013-01-28 14:16:00,
2013-01-28 09:21:00,31.6,30.4,29.83,ESE,109,0.0,0.0,95,0.00,,,0.00,meteohub,2013-01-28 14:21:00,
2013-01-28 09:26:00,31.8,30.6,29.83,East,85,0.0,0.0,95,0.00,,,0.00,meteohub,2013-01-28 14:26:00,
2013-01-28 09:31:00,31.8,30.4,29.83,NE,55,0.0,0.0,94,0.00,,,0.00,meteohub,2013-01-28 14:31:00,
2013-01-28 09:37:00,31.8,30.4,29.83,ESE,123,0.0,0.0,94,0.00,,,0.00,meteohub,2013-01-28 14:37:00,
2013-01-28 09:42:00,32.0,30.7,29.83,SE,134,0.0,0.0,95,0.00,,,0.00,meteohub,2013-01-28 14:42:00,
2013-01-28 09:47:00,32.2,30.6,29.83,SSE,165,0.0,0.0,94,0.00,,,0.00,meteohub,2013-01-28 14:47:00,
2013-01-28 09:52:00,32.2,30.9,29.83,SSE,152,0.0,0.0,95,0.00,,,0.00,meteohub,2013-01-28 14:52:00,
2013-01-28 09:57:00,32.4,30.7,29.82,SE,136,0.0,0.0,94,0.00,,,0.00,meteohub,2013-01-28 14:57:00,
2013-01-28 10:02:00,32.5,30.9,29.82,East,86,0.0,0.0,94,0.00,,,0.00,meteohub,2013-01-28 15:02:00,
2013-01-28 10:07:00,32.5,30.9,29.82,SSE,155,0.0,0.0,94,0.00,,,0.00,meteohub,2013-01-28 15:07:00,
2013-01-28 10:12:00,32.7,31.1,29.83,SE,138,0.0,0.0,94,0.00,,,0.00,meteohub,2013-01-28 15:12:00,
2013-01-28 10:17:00,32.7,31.1,29.83,South,169,0.0,0.0,94,0.00,,,0.00,meteohub,2013-01-28 15:17:00,
2013-01-28 10:22:00,32.7,31.1,29.83,South,185,0.0,0.0,94,0.00,,,0.00,meteohub,2013-01-28 15:22:00,
2013-01-28 10:27:00,32.9,31.3,29.83,ESE,123,0.0,0.0,94,0.00,,,0.00,meteohub,2013-01-28 15:27:00,
2013-01-28 10:32:00,32.9,31.3,29.83,ESE,123,0.0,0.0,94,0.00,,,0.00,meteohub,2013-01-28 15:32:00,
2013-01-28 10:37:00,33.1,31.5,29.83,SE,130,0.0,0.0,94,0.00,,,0.00,meteohub,2013-01-28 15:37:00,
2013-01-28 10:42:00,33.1,31.5,29.83,SE,138,0.0,0.0,94,0.00,,,0.00,meteohub,2013-01-28 15:42:00,
2013-01-28 10:47:00,33.1,31.5,29.83,SE,138,0.0,0.0,94,0.00,,,0.00,meteohub,2013-01-28 15:47:00,
2013-01-28 10:52:00,33.3,31.6,29.83,SE,138,0.0,0.0,94,0.00,,,0.00,meteohub,2013-01-28 15:52:00,
2013-01-28 10:57:00,33.4,31.8,29.83,SE,138,0.0,0.0,94,0.00,,,0.00,meteohub,2013-01-28 15:57:00,
2013-01-28 11:02:00,33.4,31.8,29.83,SE,138,0.0,0.0,94,0.00,,,0.00,meteohub,2013-01-28 16:02:00,
2013-01-28 11:07:00,33.4,31.6,29.83,ESE,113,0.0,0.0,93,0.00,,,0.00,meteohub,2013-01-28 16:07:00,
2013-01-28 11:12:00,33.4,31.8,29.83,SSE,154,0.0,0.0,94,0.00,,,0.00,meteohub,2013-01-28 16:12:00,
2013-01-28 11:17:00,33.6,32.0,29.83,SSE,154,0.0,0.0,94,0.00,,,0.00,meteohub,2013-01-28 16:17:00,
2013-01-28 11:22:00,33.6,31.8,29.84,South,175,0.0,0.0,93,0.00,,,0.00,meteohub,2013-01-28 16:22:00,
2013-01-28 11:27:00,33.6,32.0,29.84,South,175,0.0,0.0,94,0.00,,,0.00,meteohub,2013-01-28 16:27:00,
2013-01-28 11:32:00,34.0,32.4,29.83,South,179,0.0,0.0,94,0.00,,,0.00,meteohub,2013-01-28 16:32:00,
2013-01-28 11:37:00,33.6,31.8,29.83,NNE,25,0.0,0.0,93,0.00,,,0.00,meteohub,2013-01-28 16:37:00,
2013-01-28 11:42:00,33.4,31.8,29.83,NW,326,0.0,0.0,94,0.00,,,0.00,meteohub,2013-01-28 16:42:00,
2013-01-28 11:47:00,33.3,31.6,29.83,NNW,330,0.0,0.0,94,0.00,,,0.00,meteohub,2013-01-28 16:47:00,
2013-01-28 11:52:00,33.3,31.6,29.84,NNW,330,0.0,0.0,94,0.00,,,0.00,meteohub,2013-01-28 16:52:00,
2013-01-28 11:57:00,33.3,31.6,29.84,WNW,283,0.0,0.0,94,0.00,,,0.00,meteohub,2013-01-28 16:57:00,
2013-01-28 12:02:00,33.3,32.0,29.84,NW,306,0.0,0.0,95,0.00,,,0.00,meteohub,2013-01-28 17:02:00,
2013-01-28 12:07:00,33.3,32.0,29.84,NW,304,0.0,0.0,95,0.00,,,0.00,meteohub,2013-01-28 17:07:00,
2013-01-28 12:12:00,33.3,32.0,29.84,West,279,0.0,0.0,95,0.00,,,0.00,meteohub,2013-01-28 17:12:00,
2013-01-28 12:17:00,33.3,32.0,29.84,North,1,0.0,0.0,95,0.00,,,0.00,meteohub,2013-01-28 17:17:00,
2013-01-28 12:22:00,33.1,31.8,29.84,WNW,294,0.0,0.0,95,0.00,,,0.00,meteohub,2013-01-28 17:22:00,
2013-01-28 12:27:00,33.3,32.0,29.83,WNW,288,0.0,0.0,95,0.00,,,0.00,meteohub,2013-01-28 17:27:00,
2013-01-28 12:32:00,33.3,32.0,29.83,WNW,285,0.0,0.0,95,0.00,,,0.00,meteohub,2013-01-28 17:32:00,
2013-01-28 12:37:00,33.4,32.4,29.83,West,276,0.0,0.0,96,0.00,,,0.00,meteohub,2013-01-28 17:37:00,
2013-01-28 12:42:00,33.8,32.5,29.83,WSW,242,0.0,0.0,95,0.00,,,0.00,meteohub,2013-01-28 17:42:00,
2013-01-28 12:47:00,33.6,32.0,29.83,WSW,256,0.0,0.0,94,0.00,,,0.00,meteohub,2013-01-28 17:47:00,
2013-01-28 12:52:00,33.6,32.4,29.83,NW,308,0.0,0.0,95,0.00,,,0.00,meteohub,2013-01-28 17:52:00,
2013-01-28 12:57:00,33.6,32.0,29.84,NW,311,0.0,0.0,94,0.00,,,0.00,meteohub,2013-01-28 17:57:00,
2013-01-28 13:02:00,33.6,32.0,29.84,NW,321,0.0,0.0,94,0.00,,,0.00,meteohub,2013-01-28 18:02:00,
2013-01-28 13:07:00,33.6,32.4,29.84,North,3,0.0,0.0,95,0.00,,,0.00,meteohub,2013-01-28 18:07:00,
2013-01-28 13:12:00,33.8,32.2,29.84,WNW,299,0.0,0.0,94,0.00,,,0.00,meteohub,2013-01-28 18:12:00,
2013-01-28 13:17:00,34.0,32.4,29.83,NW,321,0.0,0.0,94,0.00,,,0.00,meteohub,2013-01-28 18:17:00,
2013-01-28 13:22:00,34.0,32.4,29.84,NNW,344,0.0,0.0,94,0.00,,,0.00,meteohub,2013-01-28 18:22:00,
2013-01-28 13:27:00,34.0,32.4,29.84,WNW,289,0.0,0.0,94,0.00,,,0.00,meteohub,2013-01-28 18:27:00,
2013-01-28 13:32:00,34.0,32.4,29.83,WNW,303,0.0,0.0,94,0.00,,,0.00,meteohub,2013-01-28 18:32:00,
2013-01-28 13:37:00,34.0,32.4,29.83,NW,308,0.0,0.0,94,0.00,,,0.00,meteohub,2013-01-28 18:37:00,
2013-01-28 13:42:00,34.0,32.4,29.83,West,278,0.0,0.0,94,0.00,,,0.00,meteohub,2013-01-28 18:42:00,
2013-01-28 13:47:00,34.2,32.5,29.83,NNW,331,0.0,0.0,94,0.00,,,0.00,meteohub,2013-01-28 18:47:00,
2013-01-28 13:52:00,34.0,32.4,29.83,NW,315,0.0,0.0,94,0.00,,,0.00,meteohub,2013-01-28 18:52:00,
2013-01-28 13:57:00,34.0,32.4,29.83,NNW,336,0.0,0.0,94,0.00,,,0.00,meteohub,2013-01-28 18:57:00,
2013-01-28 14:02:00,33.8,32.2,29.83,West,264,0.0,0.0,94,0.00,,,0.00,meteohub,2013-01-28 19:02:00,
2013-01-28 14:07:00,33.6,32.0,29.83,WNW,302,0.0,0.0,94,0.00,,,0.00,meteohub,2013-01-28 19:07:00,
2013-01-28 14:12:00,33.6,32.4,29.83,WNW,295,0.0,0.0,95,0.00,,,0.00,meteohub,2013-01-28 19:12:00,
2013-01-28 14:17:00,33.6,32.4,29.83,North,1,0.0,0.0,95,0.00,,,0.00,meteohub,2013-01-28 19:17:00,
2013-01-28 14:22:00,33.6,32.4,29.83,NW,310,0.0,0.0,95,0.00,,,0.00,meteohub,2013-01-28 19:22:00,
2013-01-28 14:27:00,33.6,32.4,29.83,West,262,0.0,0.0,95,0.00,,,0.00,meteohub,2013-01-28 19:27:00,
2013-01-28 14:32:00,33.6,32.4,29.84,WSW,238,0.0,0.0,95,0.00,,,0.00,meteohub,2013-01-28 19:32:00,
2013-01-28 14:37:00,33.8,32.2,29.84,West,278,0.0,0.0,94,0.00,,,0.00,meteohub,2013-01-28 19:37:00,
2013-01-28 14:42:00,33.6,32.0,29.84,NW,323,0.0,0.0,94,0.00,,,0.00,meteohub,2013-01-28 19:42:00,
2013-01-28 14:47:00,33.4,31.8,29.85,WNW,301,0.0,0.0,94,0.00,,,0.00,meteohub,2013-01-28 19:47:00,
2013-01-28 14:52:00,33.4,31.8,29.85,WNW,294,0.0,0.0,94,0.00,,,0.00,meteohub,2013-01-28 19:52:00,
2013-01-28 14:57:00,33.4,32.2,29.85,North,358,0.0,0.0,95,0.00,,,0.00,meteohub,2013-01-28 19:57:00,
2013-01-28 15:02:00,33.3,31.6,29.85,WNW,290,0.0,0.0,94,0.00,,,0.00,meteohub,2013-01-28 20:02:00,
2013-01-28 15:07:00,33.3,31.6,29.85,West,259,0.0,0.0,94,0.00,,,0.00,meteohub,2013-01-28 20:07:00,
2013-01-28 15:12:00,33.3,31.6,29.86,NNE,15,0.0,0.0,94,0.00,,,0.00,meteohub,2013-01-28 20:12:00,
2013-01-28 15:17:00,33.3,31.6,29.86,WNW,283,0.0,0.0,94,0.00,,,0.00,meteohub,2013-01-28 20:17:00,
2013-01-28 15:22:00,33.3,31.6,29.87,NW,326,0.0,0.0,94,0.00,,,0.00,meteohub,2013-01-28 20:22:00,
2013-01-28 15:27:00,33.1,31.5,29.86,WNW,283,0.0,0.0,94,0.00,,,0.00,meteohub,2013-01-28 20:27:00,
2013-01-28 15:32:00,33.3,31.6,29.87,NNW,329,0.0,0.0,94,0.00,,,0.00,meteohub,2013-01-28 20:32:00,
2013-01-28 15:37:00,33.1,31.3,29.88,WNW,285,0.0,0.0,93,0.00,,,0.00,meteohub,2013-01-28 20:37:00,
2013-01-28 15:42:00,33.1,31.3,29.88,SSW,199,0.0,0.0,93,0.00,,,0.00,meteohub,2013-01-28 20:42:00,
2013-01-28 15:47:00,33.3,31.5,29.88,WNW,289,0.0,0.0,93,0.00,,,0.00,meteohub,2013-01-28 20:47:00,
2013-01-28 15:52:00,33.3,31.5,29.89,WSW,255,0.0,0.0,93,0.00,,,0.00,meteohub,2013-01-28 20:52:00,
2013-01-28 15:57:00,33.3,31.5,29.89,West,276,0.0,0.0,93,0.00,,,0.00,meteohub,2013-01-28 20:57:00,
2013-01-28 16:02:00,33.4,31.6,29.90,SSW,196,0.0,0.0,93,0.00,,,0.00,meteohub,2013-01-28 21:02:00,
2013-01-28 16:07:00,33.4,31.3,29.90,SSW,207,0.0,0.0,92,0.00,,,0.00,meteohub,2013-01-28 21:07:00,
2013-01-28 16:12:00,33.4,31.1,29.90,WSW,238,0.0,0.0,91,0.00,,,0.00,meteohub,2013-01-28 21:12:00,
2013-01-28 16:17:00,33.4,31.1,29.90,WNW,294,0.0,0.0,91,0.00,,,0.00,meteohub,2013-01-28 21:17:00,
2013-01-28 16:22:00,33.1,30.7,29.90,WSW,244,0.0,0.0,91,0.00,,,0.00,meteohub,2013-01-28 21:22:00,
2013-01-28 16:27:00,33.3,31.1,29.90,WNW,295,0.0,0.0,92,0.00,,,0.00,meteohub,2013-01-28 21:27:00,
2013-01-28 16:32:00,33.1,31.1,29.91,WNW,302,0.0,0.0,92,0.00,,,0.00,meteohub,2013-01-28 21:32:00,
2013-01-28 16:37:00,33.1,31.1,29.91,WSW,245,0.0,0.0,92,0.00,,,0.00,meteohub,2013-01-28 21:37:00,
2013-01-28 16:42:00,32.9,30.9,29.91,WNW,283,0.0,0.0,92,0.00,,,0.00,meteohub,2013-01-28 21:42:00,
2013-01-28 16:47:00,32.7,30.4,29.91,West,281,0.0,0.0,91,0.00,,,0.00,meteohub,2013-01-28 21:47:00,
2013-01-28 16:53:00,32.5,30.6,29.91,WNW,300,0.0,0.0,92,0.00,,,0.00,meteohub,2013-01-28 21:53:00,
2013-01-28 16:58:00,32.4,30.0,29.91,NW,304,0.0,0.0,91,0.00,,,0.00,meteohub,2013-01-28 21:58:00,
2013-01-28 17:03:00,32.5,30.6,29.92,West,259,0.0,0.0,92,0.00,,,0.00,meteohub,2013-01-28 22:03:00,
2013-01-28 17:08:00,32.5,30.6,29.93,SW,219,0.0,0.0,92,0.00,,,0.00,meteohub,2013-01-28 22:08:00,
2013-01-28 17:13:00,32.7,30.4,29.93,WSW,252,0.0,0.0,91,0.00,,,0.00,meteohub,2013-01-28 22:13:00,
2013-01-28 17:18:00,32.4,30.0,29.93,West,271,0.0,0.0,91,0.00,,,0.00,meteohub,2013-01-28 22:18:00,
2013-01-28 17:23:00,32.2,30.2,29.94,NW,305,0.0,0.0,92,0.00,,,0.00,meteohub,2013-01-28 22:23:00,
2013-01-28 17:28:00,32.2,30.2,29.94,WNW,290,0.0,0.0,92,0.00,,,0.00,meteohub,2013-01-28 22:28:00,
2013-01-28 17:33:00,32.2,30.2,29.94,WNW,302,0.0,0.0,92,0.00,,,0.00,meteohub,2013-01-28 22:33:00,
2013-01-28 17:38:00,31.8,29.8,29.94,West,279,0.0,0.0,92,0.00,,,0.00,meteohub,2013-01-28 22:38:00,
2013-01-28 17:43:00,31.6,29.8,29.94,NW,315,0.0,0.0,93,0.00,,,0.00,meteohub,2013-01-28 22:43:00,
2013-01-28 17:48:00,31.6,29.8,29.95,NW,321,0.0,0.0,93,0.00,,,0.00,meteohub,2013-01-28 22:48:00,
2013-01-28 17:53:00,31.6,29.8,29.95,NNW,329,0.0,0.0,93,0.00,,,0.00,meteohub,2013-01-28 22:53:00,
2013-01-28 17:58:00,31.6,29.8,29.95,West,277,0.0,0.0,93,0.00,,,0.00,meteohub,2013-01-28 22:58:00,
2013-01-28 18:03:00,31.6,29.8,29.96,WNW,302,0.0,0.0,93,0.00,,,0.00,meteohub,2013-01-28 23:03:00,
2013-01-28 18:08:00,31.5,29.5,29.96,WSW,251,0.0,0.0,92,0.00,,,0.00,meteohub,2013-01-28 23:08:00,
2013-01-28 18:13:00,31.5,29.7,29.95,NW,306,0.0,0.0,93,0.00,,,0.00,meteohub,2013-01-28 23:13:00,
2013-01-28 18:18:00,31.3,29.5,29.95,West,281,0.0,0.0,93,0.00,,,0.00,meteohub,2013-01-28 23:18:00,
2013-01-28 18:23:00,31.3,29.5,29.95,WNW,285,0.0,0.0,93,0.00,,,0.00,meteohub,2013-01-28 23:23:00,
2013-01-28 18:28:00,31.3,29.5,29.95,NW,325,0.0,0.0,93,0.00,,,0.00,meteohub,2013-01-28 23:28:00,
2013-01-28 18:33:00,31.1,29.3,29.95,NNW,345,0.0,0.0,93,0.00,,,0.00,meteohub,2013-01-28 23:33:00,
2013-01-28 18:38:00,30.9,29.1,29.95,NNW,337,0.0,0.0,93,0.00,,,0.00,meteohub,2013-01-28 23:38:00,
2013-01-28 18:43:00,30.9,29.5,29.95,NW,312,0.0,0.0,94,0.00,,,0.00,meteohub,2013-01-28 23:43:00,
2013-01-28 18:48:00,30.9,29.1,29.96,West,259,0.0,0.0,93,0.00,,,0.00,meteohub,2013-01-28 23:48:00,
2013-01-28 18:53:00,31.1,29.7,29.96,SSW,202,0.0,0.0,94,0.00,,,0.00,meteohub,2013-01-28 23:53:00,
2013-01-28 18:58:00,31.3,29.8,29.97,WNW,283,0.0,0.0,94,0.00,,,0.00,meteohub,2013-01-28 23:58:00,
2013-01-28 19:03:00,31.5,29.7,29.97,West,279,0.0,0.0,93,0.00,,,0.00,meteohub,2013-01-29 00:03:00,
2013-01-28 19:08:00,31.3,29.3,29.97,WNW,294,0.0,0.0,92,0.00,,,0.00,meteohub,2013-01-29 00:08:00,
2013-01-28 19:13:00,31.3,29.5,29.97,WNW,300,0.0,0.0,93,0.00,,,0.00,meteohub,2013-01-29 00:13:00,
2013-01-28 19:18:00,31.3,29.5,29.97,WSW,248,0.0,0.0,93,0.00,,,0.00,meteohub,2013-01-29 00:18:00,
2013-01-28 19:23:00,31.3,29.3,29.98,WSW,241,0.0,0.0,92,0.00,,,0.00,meteohub,2013-01-29 00:23:00,
2013-01-28 19:28:00,31.3,29.3,29.98,SSW,213,0.0,0.0,92,0.00,,,0.00,meteohub,2013-01-29 00:28:00,
2013-01-28 19:33:00,31.3,29.3,29.98,WSW,242,0.0,0.0,92,0.00,,,0.00,meteohub,2013-01-29 00:33:00,
2013-01-28 19:38:00,31.3,29.5,29.99,SW,221,0.0,0.0,93,0.00,,,0.00,meteohub,2013-01-29 00:38:00,
2013-01-28 19:43:00,31.1,29.1,29.99,SW,226,0.0,0.0,92,0.00,,,0.00,meteohub,2013-01-29 00:43:00,
2013-01-28 19:48:00,31.1,29.3,29.99,WSW,242,0.0,0.0,93,0.00,,,0.00,meteohub,2013-01-29 00:48:00,
2013-01-28 19:53:00,31.1,29.1,30.00,WSW,248,0.0,0.0,92,0.00,,,0.00,meteohub,2013-01-29 00:53:00,
2013-01-28 19:58:00,31.3,29.3,30.00,SW,233,0.0,0.0,92,0.00,,,0.00,meteohub,2013-01-29 00:58:00,
2013-01-28 20:03:00,31.3,29.3,30.01,WSW,252,0.0,0.0,92,0.00,,,0.00,meteohub,2013-01-29 01:03:00,
2013-01-28 20:08:00,31.3,29.3,30.01,SSW,207,0.0,0.0,92,0.00,,,0.00,meteohub,2013-01-29 01:08:00,
2013-01-28 20:13:00,31.3,29.3,30.01,WSW,247,0.0,0.0,92,0.00,,,0.00,meteohub,2013-01-29 01:13:00,
2013-01-28 20:18:00,31.3,29.3,30.01,WSW,248,0.0,0.0,92,0.00,,,0.00,meteohub,2013-01-29 01:18:00,
2013-01-28 20:23:00,31.3,29.3,30.01,SW,221,0.0,0.0,92,0.00,,,0.00,meteohub,2013-01-29 01:23:00,
2013-01-28 20:28:00,31.3,29.3,30.01,SW,234,0.0,0.0,92,0.00,,,0.00,meteohub,2013-01-29 01:28:00,
2013-01-28 20:34:00,31.3,29.3,30.01,SW,235,0.0,0.0,92,0.00,,,0.00,meteohub,2013-01-29 01:34:00,
2013-01-28 20:39:00,31.3,29.3,30.01,SW,214,0.0,0.0,92,0.00,,,0.00,meteohub,2013-01-29 01:39:00,
2013-01-28 20:44:00,31.3,29.3,30.01,NW,320,0.0,0.0,92,0.00,,,0.00,meteohub,2013-01-29 01:44:00,
2013-01-28 20:49:00,31.3,28.9,30.00,SSW,209,0.0,0.0,91,0.00,,,0.00,meteohub,2013-01-29 01:49:00,
2013-01-28 20:54:00,31.1,28.8,30.00,SSW,209,0.0,0.0,91,0.00,,,0.00,meteohub,2013-01-29 01:54:00,
2013-01-28 20:59:00,30.9,28.6,30.00,East,81,0.0,0.0,91,0.00,,,0.00,meteohub,2013-01-29 01:59:00,
2013-01-28 21:04:00,30.9,28.6,29.99,East,81,0.0,0.0,91,0.00,,,0.00,meteohub,2013-01-29 02:04:00,
2013-01-28 21:09:00,31.3,29.3,29.99,WSW,251,0.0,0.0,92,0.00,,,0.00,meteohub,2013-01-29 02:09:00,
2013-01-28 21:14:00,31.5,28.9,29.99,West,271,0.0,0.0,90,0.00,,,0.00,meteohub,2013-01-29 02:14:00,
2013-01-28 21:19:00,31.5,28.9,30.00,NW,309,0.0,0.0,90,0.00,,,0.00,meteohub,2013-01-29 02:19:00,
2013-01-28 21:24:00,31.3,28.9,30.00,SSW,200,0.0,0.0,91,0.00,,,0.00,meteohub,2013-01-29 02:24:00,
2013-01-28 21:29:00,31.3,28.9,30.00,SW,218,0.0,0.0,91,0.00,,,0.00,meteohub,2013-01-29 02:29:00,
2013-01-28 21:34:00,31.3,28.9,30.00,South,172,0.0,0.0,91,0.00,,,0.00,meteohub,2013-01-29 02:34:00,
2013-01-28 21:39:00,31.1,28.8,30.00,SSW,200,0.0,0.0,91,0.00,,,0.00,meteohub,2013-01-29 02:39:00,
2013-01-28 21:44:00,31.1,28.8,30.00,ESE,122,0.0,0.0,91,0.00,,,0.00,meteohub,2013-01-29 02:44:00,
2013-01-28 21:49:00,30.9,28.6,29.99,ESE,122,0.0,0.0,91,0.00,,,0.00,meteohub,2013-01-29 02:49:00,
2013-01-28 21:54:00,30.9,28.9,29.99,WSW,254,0.0,0.0,92,0.00,,,0.00,meteohub,2013-01-29 02:54:00,
2013-01-28 21:59:00,30.9,28.6,29.99,ESE,120,0.0,0.0,91,0.00,,,0.00,meteohub,2013-01-29 02:59:00,
2013-01-28 22:04:00,30.9,28.6,29.99,ESE,115,0.0,0.0,91,0.00,,,0.00,meteohub,2013-01-29 03:04:00,
2013-01-28 22:09:00,31.1,29.1,29.99,SE,142,0.0,0.0,92,0.00,,,0.00,meteohub,2013-01-29 03:09:00,
2013-01-28 22:14:00,31.1,29.1,29.99,SE,142,0.0,0.0,92,0.00,,,0.00,meteohub,2013-01-29 03:14:00,
2013-01-28 22:19:00,30.9,28.9,29.99,South,175,0.0,0.0,92,0.00,,,0.00,meteohub,2013-01-29 03:19:00,
2013-01-28 22:24:00,30.9,28.9,29.99,SE,140,0.0,0.0,92,0.00,,,0.00,meteohub,2013-01-29 03:24:00,
2013-01-28 22:29:00,30.9,28.6,29.99,SE,126,0.0,0.0,91,0.00,,,0.00,meteohub,2013-01-29 03:29:00,
2013-01-28 22:34:00,30.9,28.6,29.99,SSE,161,0.0,0.0,91,0.00,,,0.00,meteohub,2013-01-29 03:34:00,
2013-01-28 22:39:00,30.9,28.6,29.99,SE,130,0.0,0.0,91,0.00,,,0.00,meteohub,2013-01-29 03:39:00,
2013-01-28 22:44:00,30.9,28.6,29.99,SW,233,0.0,0.0,91,0.00,,,0.00,meteohub,2013-01-29 03:44:00,
2013-01-28 22:49:00,30.9,28.9,29.99,SSE,162,0.0,0.0,92,0.00,,,0.00,meteohub,2013-01-29 03:49:00,
2013-01-28 22:54:00,30.9,28.9,29.99,South,182,0.0,0.0,92,0.00,,,0.00,meteohub,2013-01-29 03:54:00,
2013-01-28 22:59:00,30.9,28.9,29.99,SSW,196,0.0,0.0,92,0.00,,,0.00,meteohub,2013-01-29 03:59:00,
2013-01-28 23:04:00,30.9,28.9,29.99,SSE,155,0.0,0.0,92,0.00,,,0.00,meteohub,2013-01-29 04:04:00,
2013-01-28 23:09:00,30.9,28.9,29.99,SSE,155,0.0,0.0,92,0.00,,,0.00,meteohub,2013-01-29 04:09:00,
2013-01-28 23:14:00,30.7,28.8,29.99,SSE,155,0.0,0.0,92,0.00,,,0.00,meteohub,2013-01-29 04:14:00,
2013-01-28 23:19:00,30.7,28.8,30.00,SSE,155,0.0,0.0,92,0.00,,,0.00,meteohub,2013-01-29 04:19:00,
2013-01-28 23:24:00,30.7,28.8,30.00,SSE,155,0.0,0.0,92,0.00,,,0.00,meteohub,2013-01-29 04:24:00,
2013-01-28 23:29:00,30.7,28.8,29.99,SSE,155,0.0,0.0,92,0.00,,,0.00,meteohub,2013-01-29 04:29:00,
2013-01-28 23:34:00,30.7,28.8,29.99,SSE,155,0.0,0.0,92,0.00,,,0.00,meteohub,2013-01-29 04:34:00,
2013-01-28 23:39:00,30.7,28.8,29.99,SSE,155,0.0,0.0,92,0.00,,,0.00,meteohub,2013-01-29 04:39:00,
2013-01-28 23:44:00,30.7,28.8,29.98,SSE,155,0.0,0.0,92,0.00,,,0.00,meteohub,2013-01-29 04:44:00,
2013-01-28 23:49:00,30.7,28.9,29.98,SSE,155,0.0,0.0,93,0.00,,,0.00,meteohub,2013-01-29 04:49:00,
2013-01-28 23:54:00,30.7,28.9,29.99,SSE,155,0.0,0.0,93,0.00,,,0.00,meteohub,2013-01-29 04:54:00,
2013-01-28 23:59:00,30.7,28.9,29.99,SSE,155,0.0,0.0,93,0.00,,,0.00,meteohub,2013-01-29 04:59:00,